Вернуться в каталог

COSMOS 1226

АктивенВоенныеPO
NORAD 12091·PAYLOAD·🇷🇺 Russia

Запущен Dec 10, 1980 с Plesetsk Cosmodrome

Loading…

Ближайшие Пролёты (ближайшие 24 часа)

TLE

СвежийSource: Space-Track

Эпоха: Sep 14, 2026, 02:38 UTC

1 12091U 80099A   26257.11033626  .00000057  00000-0  43277-4 0  9992
2 12091  82.9393 298.0583 0033774 172.2550 215.4693 13.74728029294974

Отслеживайте COSMOS 1226 в реальном времени с AllMySat

Download on the App Store